FW4741 Weather Reports


Display with metric or nautical units.
time (UTC)temp
F
wind
direction
speed
MPH
gust
MPH
rain 1hr
in
rain 24hr
in
rain mn
in
humidity
%
barometer
mb
20260505061102 66 77 2.0 6.0 0.00 0.00 0.00 51 1022.3
20260505060603 66 77 2.0 6.0 0.00 0.00 0.00 52 1022.4
20260505060103 67 77 2.0 6.0 0.00 0.00 0.00 52 1022.4
20260505055603 67 77 2.0 6.0 0.00 0.00 0.00 51 1022.3
20260505055103 66 77 2.0 6.0 0.00 0.00 0.00 51 1022.3
20260505054603 66 77 2.0 6.0 0.00 0.00 0.00 53 1022.4
20260505054103 67 77 2.0 6.0 0.00 0.00 0.00 54 1022.4
20260505053604 67 77 2.0 6.0 0.00 0.00 0.00 53 1022.3
20260505053103 68 77 2.0 6.0 0.00 0.00 0.00 52 1022.4
20260505052603 68 77 2.0 6.0 0.00 0.00 0.00 51 1022.4
20260505051603 68 77 2.0 6.0 0.00 0.00 0.00 49 1022.4
20260505050603 69 77 2.0 6.0 0.00 0.00 0.00 49 1022.3
20260505050103 69 77 2.0 6.0 0.00 0.00 0.00 49 1022.3
20260505041603 69 77 2.0 6.0 0.00 0.00 0.00 46 1022.2
20260505040603 70 77 2.0 6.0 0.00 0.00 0.00 47 1022.2
20260505035603 70 77 2.0 6.0 0.00 0.00 0.00 46 1022.0
20260505035103 70 77 2.0 6.0 0.00 0.00 0.00 46 1022.0
20260505034603 70 77 2.0 6.0 0.00 0.00 0.00 46 1022.0
20260505034103 70 77 2.0 6.0 0.00 0.00 0.00 46 1022.0
20260505033603 71 77 2.0 6.0 0.00 0.00 0.00 45 1021.9
20260505033103 71 77 2.0 6.0 0.00 0.00 0.00 45 1021.8
20260505032603 71 77 2.0 6.0 0.00 0.00 0.00 45 1021.8
20260505032103 72 77 2.0 6.0 0.00 0.00 0.00 44 1021.8
20260505031104 72 77 2.0 6.0 0.00 0.00 0.00 43 1021.7
20260505030603 72 77 2.0 6.0 0.00 0.00 0.00 43 1021.6
20260505025604 73 77 2.0 6.0 0.00 0.00 0.00 42 1021.5
20260505025103 73 77 2.0 6.0 0.00 0.00 0.00 43 1021.5
20260505024603 73 77 2.0 6.0 0.00 0.00 0.00 42 1021.5
20260505024103 73 77 2.0 6.0 0.00 0.00 0.00 42 1021.4
20260505023603 74 77 2.0 6.0 0.00 0.00 0.00 42 1021.4
20260505022604 75 77 2.0 6.0 0.00 0.00 0.00 41 1021.2
20260505022103 76 77 2.0 6.0 0.00 0.00 0.00 40 1021.2
20260505021603 77 77 2.0 6.0 0.00 0.00 0.00 39 1021.1
20260505021103 78 77 2.0 6.0 0.00 0.00 0.00 36 1021.1
20260505020604 79 77 2.0 6.0 0.00 0.00 0.00 35 1021.0
20260505020103 79 77 2.0 6.0 0.00 0.00 0.00 35 1021.0
20260505015604 79 77 2.0 6.0 0.00 0.00 0.00 35 1020.9
20260505015103 79 77 2.0 6.0 0.00 0.00 0.00 35 1020.9
20260505014603 79 77 2.0 6.0 0.00 0.00 0.00 35 1020.8
20260505014104 79 77 2.0 6.0 0.00 0.00 0.00 35 1020.8
20260505013603 79 77 2.0 6.0 0.00 0.00 0.00 35 1020.7
20260505013104 79 77 2.0 6.0 0.00 0.00 0.00 35 1020.6
20260505012603 79 77 2.0 6.0 0.00 0.00 0.00 35 1020.6
20260505012103 80 77 2.0 6.0 0.00 0.00 0.00 35 1020.5
20260505011603 80 77 2.0 6.0 0.00 0.00 0.00 35 1020.5
20260505011103 80 77 2.0 6.0 0.00 0.00 0.00 34 1020.4
20260505010603 81 77 2.0 6.0 0.00 0.00 0.00 34 1020.4
20260505010104 81 77 2.0 6.0 0.00 0.00 0.00 34 1020.4
20260505005604 82 77 2.0 6.0 0.00 0.00 0.00 33 1020.4
20260505005103 82 77 2.0 6.0 0.00 0.00 0.00 33 1020.3
20260505004603 82 77 2.0 6.0 0.00 0.00 0.00 32 1020.3
20260505004103 83 77 2.0 6.0 0.00 0.00 0.00 32 1020.3
20260505003103 83 77 2.0 6.0 0.00 0.00 0.00 32 1020.2
20260505002603 83 77 2.0 6.0 0.00 0.00 0.00 32 1020.2
20260505002103 83 77 2.0 6.0 0.00 0.00 0.00 31 1020.1
20260505001603 84 77 2.0 6.0 0.00 0.00 0.00 31 1020.0
20260505001103 84 77 2.0 6.0 0.00 0.00 0.00 31 1019.9
20260505000604 84 77 2.0 6.0 0.00 0.00 0.00 31 1020.0
20260505000103 84 77 2.0 6.0 0.00 0.00 0.00 31 1019.9
20260504235103 84 77 2.0 6.0 0.00 0.00 0.00 30 1020.0
20260504234603 84 77 2.0 6.0 0.00 0.00 0.00 30 1019.9
20260504234103 85 77 2.0 6.0 0.00 0.00 0.00 30 1019.9
20260504232603 85 77 2.0 6.0 0.00 0.00 0.00 29 1019.9
20260504232103 85 77 2.0 6.0 0.00 0.00 0.00 29 1019.9
20260504231606 85 77 2.0 6.0 0.00 0.00 0.00 30 1020.0
20260504231103 85 77 2.0 6.0 0.00 0.00 0.00 30 1020.0
20260504230603 85 77 2.0 6.0 0.00 0.00 0.00 30 1020.0
20260504225103 85 77 2.0 6.0 0.00 0.00 0.00 30 1020.0
20260504224603 85 77 2.0 6.0 0.00 0.00 0.00 30 1020.1
20260504224103 86 77 2.0 6.0 0.00 0.00 0.00 29 1020.0
20260504223604 86 77 2.0 6.0 0.00 0.00 0.00 30 1020.0
20260504223103 86 77 2.0 6.0 0.00 0.00 0.00 30 1020.1
20260504222604 86 77 2.0 6.0 0.00 0.00 0.00 30 1020.1
20260504222104 86 77 2.0 6.0 0.00 0.00 0.00 30 1020.1
20260504221603 86 77 2.0 6.0 0.00 0.00 0.00 29 1020.1
20260504221103 86 77 2.0 6.0 0.00 0.00 0.00 30 1020.1
20260504220603 86 77 2.0 6.0 0.00 0.00 0.00 30 1020.2
20260504220103 85 77 2.0 6.0 0.00 0.00 0.00 30 1020.3
20260504215104 86 77 2.0 6.0 0.00 0.00 0.00 30 1020.4
20260504214603 85 77 2.0 6.0 0.00 0.00 0.00 30 1020.4
20260504214103 85 77 2.0 6.0 0.00 0.00 0.00 30 1020.4
20260504213603 85 77 2.0 6.0 0.00 0.00 0.00 30 1020.4
20260504213103 85 77 2.0 6.0 0.00 0.00 0.00 30 1020.4
20260504212604 85 77 2.0 6.0 0.00 0.00 0.00 30 1020.4
20260504212104 85 77 2.0 6.0 0.00 0.00 0.00 30 1020.5
20260504211603 84 77 2.0 6.0 0.00 0.00 0.00 31 1020.6
20260504211104 84 77 2.0 6.0 0.00 0.00 0.00 31 1020.6
20260504210603 85 77 2.0 6.0 0.00 0.00 0.00 31 1020.7
20260504205603 84 77 2.0 6.0 0.00 0.00 0.00 31 1020.8
20260504205103 85 77 2.0 6.0 0.00 0.00 0.00 31 1020.9
20260504204603 84 77 2.0 6.0 0.00 0.00 0.00 32 1020.9
20260504204103 84 77 2.0 6.0 0.00 0.00 0.00 31 1021.0
20260504203604 84 77 2.0 6.0 0.00 0.00 0.00 31 1021.1
20260504202604 84 77 2.0 6.0 0.00 0.00 0.00 32 1021.1
20260504202103 84 77 2.0 6.0 0.00 0.00 0.00 32 1021.2
20260504201603 83 77 2.0 6.0 0.00 0.00 0.00 32 1021.3
20260504201103 83 77 2.0 6.0 0.00 0.00 0.00 33 1021.3
20260504200604 83 77 2.0 6.0 0.00 0.00 0.00 32 1021.4
20260504195603 83 77 2.0 6.0 0.00 0.00 0.00 32 1021.5
20260504195103 83 77 2.0 6.0 0.00 0.00 0.00 32 1021.6
20260504194603 83 77 2.0 6.0 0.00 0.00 0.00 32 1021.7
20260504194103 83 77 2.0 6.0 0.00 0.00 0.00 32 1021.8
20260504193603 82 77 2.0 6.0 0.00 0.00 0.00 33 1021.8
20260504192603 82 77 2.0 6.0 0.00 0.00 0.00 32 1022.0
20260504192104 82 77 2.0 6.0 0.00 0.00 0.00 33 1022.0
20260504191603 82 77 2.0 6.0 0.00 0.00 0.00 33 1022.1
20260504190603 82 77 2.0 6.0 0.00 0.00 0.00 33 1022.3
20260504185603 81 77 2.0 6.0 0.00 0.00 0.00 34 1022.4
20260504185103 81 77 2.0 6.0 0.00 0.00 0.00 33 1022.4
20260504184603 81 77 2.0 6.0 0.00 0.00 0.00 33 1022.5
20260504184103 81 77 2.0 6.0 0.00 0.00 0.00 34 1022.6
20260504183103 81 77 2.0 6.0 0.00 0.00 0.00 34 1022.6
20260504182103 81 77 2.0 6.0 0.00 0.00 0.00 34 1022.7
20260504181603 80 77 2.0 6.0 0.00 0.00 0.00 34 1022.8
20260504181103 80 77 2.0 6.0 0.00 0.00 0.00 35 1022.9
20260504180603 80 77 2.0 6.0 0.00 0.00 0.00 34 1022.9
20260504180104 79 77 2.0 6.0 0.00 0.00 0.00 35 1023.1
20260504175604 79 77 2.0 6.0 0.00 0.00 0.00 34 1023.1
20260504175103 79 77 2.0 6.0 0.00 0.00 0.00 34 1023.2
20260504174104 79 77 2.0 6.0 0.00 0.00 0.00 35 1023.3
20260504173603 79 77 2.0 6.0 0.00 0.00 0.00 35 1023.3
20260504173104 79 77 2.0 6.0 0.00 0.00 0.00 35 1023.4
20260504171603 78 77 2.0 6.0 0.00 0.00 0.00 35 1023.5
20260504171103 78 77 2.0 6.0 0.00 0.00 0.00 35 1023.6
20260504170603 78 77 2.0 6.0 0.00 0.00 0.00 36 1023.6
20260504151103 72 77 2.0 6.0 0.00 0.00 0.00 48 1023.9
20260504150604 71 77 2.0 6.0 0.00 0.00 0.00 46 1024.0
20260504150103 71 77 2.0 6.0 0.00 0.00 0.00 50 1024.0
20260504140603 63 77 2.0 6.0 0.00 0.00 0.00 62 1024.1
20260504140104 63 77 2.0 6.0 0.00 0.00 0.00 62 1024.0
20260504130603 59 77 2.0 6.0 0.00 0.00 0.00 68 1023.9
20260504130103 58 77 2.0 6.0 0.00 0.00 0.00 68 1023.9
20260504120104 59 77 2.0 6.0 0.00 0.00 0.00 69 1023.4
20260504110603 60 77 2.0 6.0 0.00 0.00 0.00 59 1023.1
20260504110103 60 77 2.0 6.0 0.00 0.00 0.00 60 1023.0
20260504100603 63 77 2.0 6.0 0.00 0.00 0.00 60 1022.8
20260504100103 63 77 2.0 6.0 0.00 0.00 0.00 60 1022.8
20260504081603 67 77 2.0 6.0 0.00 0.00 0.00 58 1023.0
20260504081104 67 77 2.0 6.0 0.00 0.00 0.00 57 1023.0
20260504080603 67 77 2.0 6.0 0.00 0.00 0.00 57 1023.0
20260504080104 67 77 2.0 6.0 0.00 0.00 0.00 57 1023.1
20260504070103 68 77 2.0 6.0 0.00 0.00 0.00 56 1023.4